Location: La Brionne
(46.1728°N, 1.7849°E)
Time: 02:00:00
(UTC+00:00)

Cosmos 2219 Rocket - Pass Details

Date: 29 October 2021
Orbit: 827 x 848 km, 71.0° (Epoch: 26 November)

Event Time Altitude Azimuth Distance (km) Brightness Sun altitude
Exits shadow 05:26:26 13° 299° (WNW) 2,263 3.9 -11.5°
Maximum altitude 05:29:39 20° 260° (W) 1,841 3.4 -10.9°
Drops below altitude 10° 05:33:41 10° 214° (SW) 2,464 4.4 -10.2°
Sets 05:36:43 0° 198° (SSW) 3,395 5.3 -9.7°
